Previsão horária em Abkhazia

Hoje, 18 Maio, Terça-feira

Tempo Temperatura Precipitação Vento Pressão Humidade
00:00 +13°C° 0.6 mm 1 m/s 683 mmHg 98%
01:00 +13°C° 0.7 mm 1 m/s 683 mmHg 98%
02:00 +13°C° 0.7 mm 1 m/s 683 mmHg 98%
03:00 +12°C° 0.7 mm 1 m/s 683 mmHg 98%
04:00 +12°C° 0.2 mm 1 m/s 683 mmHg 97%
05:00 +12°C° 0.2 mm 1 m/s 683 mmHg 96%
06:00 +12°C° 0.2 mm 1 m/s 683 mmHg 95%
07:00 +14°C° 0 mm 1 m/s 683 mmHg 91%
08:00 +15°C° 0 mm 2 m/s 684 mmHg 86%
09:00 +16°C° 0 mm 2 m/s 684 mmHg 81%
10:00 +17°C° 0.2 mm 2 m/s 684 mmHg 76%
11:00 +18°C° 0.2 mm 2 m/s 684 mmHg 72%
12:00 +18°C° 0.2 mm 2 m/s 684 mmHg 67%
13:00 +19°C° 0.1 mm 2 m/s 684 mmHg 65%
14:00 +19°C° 0.1 mm 2 m/s 684 mmHg 62%
15:00 +19°C° 0.1 mm 2 m/s 684 mmHg 60%
16:00 +19°C° 0 mm 2 m/s 684 mmHg 62%
17:00 +20°C° 0 mm 1 m/s 684 mmHg 65%
18:00 +19°C° 0 mm 1 m/s 684 mmHg 67%
19:00 +18°C° 0 mm 1 m/s 683 mmHg 71%
20:00 +15°C° 0 mm 2 m/s 683 mmHg 75%
21:00 +13°C° 0 mm 2 m/s 683 mmHg 79%
22:00 +13°C° 0 mm 2 m/s 683 mmHg 73%
23:00 +12°C° 0 mm 3 m/s 682 mmHg 67%

Amanhã, 19 Maio, Quarta-feira

Tempo Temperatura Precipitação Vento Pressão Humidade
00:00 +12°C° 0 mm 3 m/s 682 mmHg 61%
01:00 +12°C° 0.1 mm 3 m/s 681 mmHg 63%
02:00 +13°C° 0.1 mm 3 m/s 681 mmHg 64%
03:00 +13°C° 0.1 mm 3 m/s 681 mmHg 65%
04:00 +12°C° 1 mm 3 m/s 681 mmHg 74%
05:00 +12°C° 1 mm 3 m/s 682 mmHg 83%
06:00 +11°C° 1 mm 3 m/s 682 mmHg 92%
07:00 +11°C° 0.9 mm 3 m/s 683 mmHg 93%
08:00 +11°C° 0.9 mm 3 m/s 684 mmHg 95%
09:00 +11°C° 0.9 mm 4 m/s 685 mmHg 97%
10:00 +12°C° 1.6 mm 3 m/s 685 mmHg 97%
11:00 +12°C° 1.6 mm 3 m/s 686 mmHg 96%
12:00 +13°C° 1.6 mm 2 m/s 686 mmHg 96%
13:00 +13°C° 0.7 mm 2 m/s 687 mmHg 93%
14:00 +13°C° 0.7 mm 2 m/s 687 mmHg 90%
15:00 +13°C° 0.7 mm 2 m/s 687 mmHg 87%
16:00 +13°C° 0 mm 2 m/s 687 mmHg 83%
17:00 +13°C° 0 mm 2 m/s 687 mmHg 79%
18:00 +14°C° 0 mm 2 m/s 687 mmHg 75%
19:00 +12°C° 0 mm 2 m/s 687 mmHg 79%
20:00 +10°C° 0 mm 2 m/s 687 mmHg 83%
21:00 +8°C° 0 mm 2 m/s 687 mmHg 87%
22:00 +8°C° 0 mm 2 m/s 687 mmHg 77%
23:00 +8°C° 0 mm 2 m/s 686 mmHg 67%

Depois de amanhã, 20 Maio, Quinta-feira

Tempo Temperatura Precipitação Vento Pressão Humidade
00:00 +7°C° 0 mm 2 m/s 686 mmHg 57%
01:00 +8°C° 0 mm 3 m/s 686 mmHg 51%
02:00 +8°C° 0 mm 3 m/s 686 mmHg 44%
03:00 +8°C° 0 mm 3 m/s 685 mmHg 38%
04:00 +9°C° 0 mm 3 m/s 685 mmHg 38%
05:00 +10°C° 0 mm 3 m/s 685 mmHg 38%
06:00 +10°C° 0 mm 3 m/s 685 mmHg 38%
07:00 +14°C° 0 mm 2 m/s 685 mmHg 35%
08:00 +17°C° 0 mm 2 m/s 685 mmHg 32%
09:00 +20°C° 0 mm 2 m/s 685 mmHg 29%
10:00 +21°C° 0 mm 2 m/s 686 mmHg 28%
11:00 +23°C° 0 mm 2 m/s 686 mmHg 28%
12:00 +24°C° 0 mm 2 m/s 686 mmHg 27%
13:00 +25°C° 0 mm 2 m/s 686 mmHg 27%
14:00 +25°C° 0 mm 2 m/s 685 mmHg 27%
15:00 +26°C° 0 mm 2 m/s 685 mmHg 27%
16:00 +25°C° 0 mm 2 m/s 685 mmHg 34%
17:00 +24°C° 0 mm 2 m/s 685 mmHg 41%
18:00 +23°C° 0 mm 2 m/s 684 mmHg 48%
19:00 +21°C° 0 mm 2 m/s 684 mmHg 46%
20:00 +19°C° 0 mm 3 m/s 684 mmHg 43%
21:00 +17°C° 0 mm 4 m/s 683 mmHg 41%
22:00 +17°C° 0 mm 4 m/s 683 mmHg 41%
23:00 +17°C° 0 mm 3 m/s 683 mmHg 41%

21 Maio, Sexta-feira

Tempo Temperatura Precipitação Vento Pressão Humidade
00:00 +17°C° 0 mm 3 m/s 683 mmHg 41%
01:00 +18°C° 0 mm 3 m/s 683 mmHg 41%
02:00 +18°C° 0 mm 3 m/s 683 mmHg 41%
03:00 +18°C° 0 mm 3 m/s 682 mmHg 41%
04:00 +18°C° 0 mm 3 m/s 682 mmHg 44%
05:00 +19°C° 0 mm 3 m/s 683 mmHg 46%
06:00 +19°C° 0 mm 3 m/s 683 mmHg 48%
07:00 +22°C° 0 mm 3 m/s 683 mmHg 44%
08:00 +25°C° 0 mm 2 m/s 684 mmHg 39%
09:00 +28°C° 0 mm 2 m/s 684 mmHg 35%
10:00 +28°C° 0 mm 2 m/s 684 mmHg 35%
11:00 +28°C° 0 mm 2 m/s 685 mmHg 36%
12:00 +28°C° 0 mm 3 m/s 685 mmHg 36%
13:00 +28°C° 0 mm 3 m/s 685 mmHg 38%
14:00 +28°C° 0 mm 2 m/s 685 mmHg 40%
15:00 +28°C° 0 mm 2 m/s 685 mmHg 42%
16:00 +27°C° 0 mm 2 m/s 684 mmHg 50%
17:00 +26°C° 0 mm 2 m/s 684 mmHg 58%
18:00 +25°C° 0 mm 1 m/s 684 mmHg 67%
19:00 +23°C° 0 mm 1 m/s 684 mmHg 67%
20:00 +19°C° 0 mm 2 m/s 684 mmHg 67%
21:00 +17°C° 0 mm 2 m/s 685 mmHg 67%
22:00 +18°C° 0 mm 2 m/s 684 mmHg 61%
23:00 +19°C° 0 mm 3 m/s 683 mmHg 55%

22 Maio, Sábado

Tempo Temperatura Precipitação Vento Pressão Humidade
00:00 +20°C° 0 mm 3 m/s 683 mmHg 49%
01:00 +20°C° 0 mm 3 m/s 683 mmHg 47%
02:00 +20°C° 0 mm 3 m/s 682 mmHg 44%
03:00 +20°C° 0 mm 3 m/s 682 mmHg 41%
04:00 +19°C° 0.3 mm 3 m/s 682 mmHg 50%
05:00 +19°C° 0.3 mm 3 m/s 682 mmHg 59%
06:00 +18°C° 0.3 mm 4 m/s 682 mmHg 68%
07:00 +21°C° 0 mm 3 m/s 682 mmHg 58%
08:00 +26°C° 0 mm 2 m/s 682 mmHg 48%
09:00 +29°C° 0 mm 1 m/s 683 mmHg 38%
10:00 +29°C° 0 mm 2 m/s 683 mmHg 37%
11:00 +30°C° 0 mm 2 m/s 683 mmHg 36%
12:00 +30°C° 0 mm 3 m/s 683 mmHg 35%
13:00 +30°C° 0 mm 2 m/s 683 mmHg 34%
14:00 +31°C° 0 mm 2 m/s 682 mmHg 33%
15:00 +31°C° 0 mm 2 m/s 682 mmHg 32%
16:00 +28°C° 0.3 mm 2 m/s 682 mmHg 47%
17:00 +25°C° 0.3 mm 3 m/s 682 mmHg 62%
18:00 +21°C° 0.3 mm 4 m/s 682 mmHg 77%
19:00 +20°C° 0.1 mm 4 m/s 682 mmHg 75%
20:00 +20°C° 0.1 mm 4 m/s 682 mmHg 72%
21:00 +19°C° 0.1 mm 3 m/s 682 mmHg 69%
22:00 +19°C° 0 mm 3 m/s 682 mmHg 66%
23:00 +19°C° 0 mm 3 m/s 681 mmHg 62%

23 Maio, Domingo

Tempo Temperatura Precipitação Vento Pressão Humidade
00:00 +19°C° 0 mm 2 m/s 681 mmHg 58%
01:00 +19°C° 0 mm 2 m/s 681 mmHg 57%
02:00 +19°C° 0 mm 2 m/s 681 mmHg 55%
03:00 +19°C° 0 mm 2 m/s 681 mmHg 54%
04:00 +19°C° 0 mm 2 m/s 681 mmHg 58%
05:00 +19°C° 0 mm 2 m/s 680 mmHg 63%
06:00 +19°C° 0 mm 2 m/s 680 mmHg 68%
07:00 +20°C° 0 mm 2 m/s 680 mmHg 63%
08:00 +23°C° 0 mm 2 m/s 680 mmHg 58%
09:00 +25°C° 0 mm 2 m/s 680 mmHg 53%
10:00 +25°C° 0 mm 2 m/s 680 mmHg 55%
11:00 +25°C° 0 mm 3 m/s 680 mmHg 56%
12:00 +25°C° 0 mm 3 m/s 680 mmHg 58%
13:00 +24°C° 0 mm 3 m/s 680 mmHg 63%
14:00 +24°C° 0 mm 2 m/s 680 mmHg 69%
15:00 +23°C° 0 mm 2 m/s 680 mmHg 74%
16:00 +20°C° 0.7 mm 2 m/s 680 mmHg 81%
17:00 +19°C° 0.7 mm 2 m/s 680 mmHg 87%
18:00 +18°C° 0.7 mm 2 m/s 680 mmHg 94%
19:00 +18°C° 0.2 mm 1 m/s 680 mmHg 93%
20:00 +18°C° 0.2 mm 1 m/s 680 mmHg 91%
21:00 +18°C° 0.2 mm 1 m/s 680 mmHg 90%
22:00 +16°C° 0 mm 1 m/s 681 mmHg 90%
23:00 +16°C° 0 mm 1 m/s 681 mmHg 90%
Mostrar mais

Necessitamos do seu Consentimento

A Meteoprog e os seus Fornecedores de Serviços podem armazenar e aceder a dados pessoais como cookies, identificadores do dispositivo ou outras tecnologias semelhantes existentes no seu dispositivo e processar estes dados para personalizar conteúdos e anúncios, assim como funcionalidades nas redes sociais e análise de tráfego.

  • Armazenar e/ou aceder a informações no seu dispositivo

    Os cookies, identificadores do dispositivo ou outras informações podem ser armazenados ou acedidos no seu dispositivo, para os fins acima indicados.

  • Anúncios e conteúdos personalizados, medição de anúncios e conteúdos, dados sobre o público-alvo e desenvolvimento de produtos

    Os anúncios e os conteúdos podem ser personalizados com base num perfil. Podem ser adicionados dados adicionais para uma maior personalização dos anúncios e dos conteúdos. A eficácia dos anúncios e dos conteúdos pode ser medida. Podem ser obtidas informações sobre o público que visualizou os anúncios e os conteúdos. Estes dados podem ser usados para desenvolver ou melhorar sistemas, softwares ou a experiência do utilizador.

Ao clicar em "Eu concordo”, permitirá o uso de cookies, identificadores do dispositivo e web beacons mencionados ou outras tecnologias semelhantes. As configurações do navegador do seu dispositivo podem ser alteradas.

Para certos fins, podem ser invocados interesses legítimos ao invés de consentimento. Pode ler mais informação sobre este assunto na nossa Política de Privacidade e Cookies.